Location: ??????????
(54.4061°N, 22.6114°E)
Time: 10:42:18
(UTC+00:00)

STARLINK-21 - Pass Details

Date: 23 October 2019
Orbit: 550 x 552 km, 53.0° (Epoch: 17 November)

Event Time Altitude Azimuth Distance (km) Brightness Sun altitude
Rises 16:06:06 0° 266° (W) 2,721 9.7 -8.2°
Reaches altitude 10° 16:08:20 10° 265° (W) 1,827 8.0 -8.5°
Maximum altitude 16:12:28 75° 180° (S) 576 3.7 -9.1°
Enters shadow 16:16:12 13° 96° (E) 1,666 5.4 -9.6°
